Location: Belt Junction
(32.7001°N, 97.3536°W)
Time: 03:53:09
(UTC+00:00)

Daily predictions for brighter satellites

Satellite Brightness Start Highest point End
(mag) Time Altitude Azimuth Time Altitude Azimuth Time Altitude Azimuth
Cosmos 1743 Rocket 3.6 00:00:15 10° N 00:04:34 83° W 00:08:54 10° S
Cosmos 990 Rocket 4.0 00:02:58 10° NNW 00:08:10 88° WSW 00:13:18 10° SSE
CZ-2D R/B 3.5 00:05:15 10° SSE 00:08:53 44° ENE 00:12:33 10° N
CORIOLIS 4.1 00:03:37 10° SSE 00:08:58 79° ENE 00:14:23 10° N
CZ-4B DEB 4.2 00:05:15 10° SSE 00:10:43 69° ENE 00:16:12 10° N
Cosmos 1634 Rocket 4.0 00:05:38 10° S 00:11:56 85° E 00:18:18 10° N
Cosmos 1340 Rocket 4.0 00:08:26 10° NNW 00:12:21 48° W 00:16:16 10° SSW
Meteor 2-21 4.5 00:07:16 10° N 00:13:13 57° E 00:19:08 10° SSE
Cosmos 1328 Rocket 4.3 00:10:31 10° SSE 00:14:27 32° E 00:18:24 10° NNE
Cosmos 1666 Rocket 4.4 00:12:08 10° NNE 00:16:01 29° ENE 00:19:50 10° SE
CZ-2C R/B 2.3 00:12:50 10° SW 00:16:45 36° SSE 00:19:38 15° E
COSMOS 2406 4.4 00:17:16 10° SW 00:22:40 42° WNW 00:28:06 10° N
ARGOS 3.6 00:20:53 10° SE 00:25:49 37° ENE 00:30:46 10° N
Cosmos 2026 Rocket 3.9 00:20:40 10° N 00:26:47 85° E 00:32:50 10° S
Cosmos 1500 3.0 00:23:38 10° N 00:27:21 67° E 00:31:02 10° SSE
COSMOS 2455 3.6 00:23:10 10° SW 00:28:59 51° WNW 00:34:51 10° NNE
SKYMED 2 3.5 00:24:47 10° NNE 00:29:08 75° ESE 00:33:27 10° S
Landsat 5 3.5 00:26:49 10° NNE 00:30:47 50° E 00:34:36 10° S
Cosmos 858 Rocket 4.4 00:26:52 10° NNW 00:32:09 71° ENE 00:37:22 10° SSE
MOS 1-B Rocket 4.4 00:27:57 10° N 00:34:03 77° WNW 00:41:07 10° SSW
Meteor 2-6 Rocket 4.3 00:29:02 10° S 00:34:44 59° E 00:40:20 10° NNE
USA 229 DEB 3.9 00:27:11 10° NNW 00:34:46 83° ENE 00:42:41 10° SSE
USA 229 3.9 00:27:17 10° NNW 00:34:51 82° ENE 00:42:46 10° SSE
PSLV R/B 4.1 00:31:37 10° S 00:35:14 65° W 00:38:55 10° NNW
SMAP 4.5 00:32:08 10° S 00:36:30 40° W 00:40:53 10° NNW
Meteor 2-14 Rocket 4.4 00:30:54 10° N 00:37:01 86° W 00:43:05 10° S
Cosmos 1570 Rocket 4.0 00:32:53 10° SSW 00:38:08 89° WNW 00:43:24 10° NNE
PAYLOAD B 4.3 00:32:54 10° SSE 00:38:30 86° WSW 00:44:08 10° NNW
Cosmos 2180 Rocket 4.5 00:36:44 10° S 00:43:03 71° E 00:49:20 10° N
USA 234 3.2 00:37:40 10° SE 00:44:09 69° NE 00:50:39 10° NW
CZ-4B R/B 3.1 00:38:47 10° SSE 00:44:13 72° ENE 00:49:35 10° N
Sich 1 3.6 00:40:31 10° NNW 00:44:44 59° W 00:48:59 10° S
Cosmos 1814 Rocket 4.4 00:39:52 10° SSW 00:45:04 64° WNW 00:50:15 10° N
GPS 2-04 Rocket1 2.8 00:41:38 10° WNW 00:45:43 60° N 00:47:01 39° ENE
H-2A R/B 3.9 00:49:34 17° SE 00:49:34 17° SE 00:51:11 10° SSE
Cosmos 1900 4.4 00:46:25 10° SSW 00:51:15 73° WNW 00:54:41 19° NNE
deb Chang Zheng 4 3.4 00:47:22 10° SSE 00:51:40 81° ENE 00:55:59 10° N
BREEZE M DEB (TANK) 4.1 00:33:37 10° NW 00:51:51 79° NE 00:55:30 21° ESE
CZ-4C R/B 2.7 00:51:57 47° NNE 00:52:46 76° ESE 00:56:07 10° S
Meteor 2-8 Rocket 4.4 00:47:21 10° S 00:53:29 85° E 00:59:41 10° N
Meteor 1-10 Rocket 4.2 00:48:09 10° S 00:53:53 63° E 00:59:17 11° NNE
CZ-2C R/B 3.0 00:49:04 10° N 00:54:10 61° WNW 00:59:15 10° SSW
Cosmos 1515 Rocket 3.7 00:51:24 10° SSE 00:55:42 51° E 00:56:50 40° NE
Cosmos 1666 2.4 00:53:14 10° N 00:56:57 86° E 01:00:38 10° S
YAOGAN 3 4.5 00:58:05 10° SSE 01:02:25 89° WSW 01:06:48 10° NNW
Feng Yun 1-1 Rocket 4.4 01:00:14 10° SSE 01:06:00 58° ENE 01:11:47 10° N
X-37B 1.8 01:04:44 10° SW 01:06:34 35° SW 01:06:34 35° SW
Cosmos 1867 3.9 01:05:32 10° S 01:10:38 44° ESE 01:10:39 44° ESE
H-2A R/B 3.4 01:08:08 10° SSW 01:13:01 40° W 01:17:49 10° NNW
USA 276 3.3 01:11:21 10° WNW 01:13:40 40° W 01:13:40 40° W
APEX 3.2 01:10:50 10° SSW 01:15:20 82° WNW 01:15:26 81° NW
CZ-4C R/B 3.1 01:09:53 10° NNW 01:17:26 56° ENE 01:21:47 30° ESE
Cosmos 921 Rocket 3.7 01:19:01 10° SSW 01:23:04 50° WNW 01:24:15 37° NNW
Tiangong 4.1 01:21:14 10° SSW 01:21:18 10° SSW 01:21:18 10° SSW
USA 32 3.8 01:19:53 10° S 01:25:05 79° E 01:25:45 67° NNE
Cosmos 1633 Rocket 4.2 01:24:28 10° NNW 01:28:37 42° W 01:32:45 10° SSW
Okean O Rocket 3.0 01:28:13 10° SSW 01:32:21 38° W 01:36:31 10° NNW
Cosmos 1980 Rocket 3.2 01:35:58 10° NW 01:41:18 45° WSW 01:46:36 10° S
Cosmos 2266 Rocket 4.3 01:47:22 10° NNW 01:53:42 64° W 02:00:00 10° S
CZ-2C R/B 3.5 01:52:01 10° W 01:53:47 24° W 01:53:47 24° W
ATLAS 3B CENTAUR R/B 4.3 01:38:04 10° W 01:57:59 75° S 02:02:42 51° ESE
Meteor 1-27 Rocket 4.4 01:56:03 10° SSW 02:01:24 50° W 02:01:40 49° WNW
CZ-4C R/B 4.5 02:59:03 10° NW 03:05:55 32° WSW 03:07:13 31° SW
Cosmos 2369 Rocket 4.1 10:05:54 25° E 10:05:54 25° E 10:09:52 10° NE
CENTAUR R/B 4.3 10:38:46 19° N 10:38:46 19° N 10:40:42 10° NNE
DELTA 2 R/B (1) 4.2 10:47:13 51° NE 10:47:13 51° NE 10:51:21 10° ENE
Cosmos 2082 Rocket 3.8 10:50:12 22° S 10:50:12 22° S 10:52:10 10° S
Cosmos 2034 Rocket 3.9 10:51:34 79° N 10:52:00 88° E 10:58:19 10° S
OAO 3 Rocket 4.0 10:55:21 49° SE 10:55:21 49° SE 10:59:05 10° ESE
Cosmos 1570 Rocket 3.8 11:11:19 77° NW 11:11:40 84° WSW 11:16:55 10° SSE
Tsikada Rocket 3.9 11:09:21 10° SSW 11:15:25 61° W 11:21:37 10° N
Cosmos 1814 Rocket 4.0 11:17:44 58° SW 11:17:44 58° SW 11:22:16 10° S
ATLAS 5 CENTAUR R/B 4.0 11:15:09 10° SSE 11:17:48 19° ESE 11:20:32 10° ENE
Hubble Space Telescope 2.4 11:29:19 22° SSW 11:29:20 22° SSW 11:32:32 10° SSE
Meteor 1-31 Rocket 3.3 11:25:53 10° NNE 11:29:44 59° E 11:33:35 10° S
Centaur D-1A AC-35 3.9 11:27:36 17° SW 11:30:18 27° S 11:33:27 10° ESE
Cosmos 921 Rocket 3.4 11:30:39 22° N 11:33:24 66° ENE 11:37:50 10° SSE
Cosmos 1782 2.6 11:33:13 69° NW 11:33:33 75° W 11:37:27 10° S
APEX 4.1 11:36:03 31° SSW 11:36:03 31° SSW 11:38:19 10° S
Cosmos 1862 3.3 11:31:46 10° S 11:35:40 77° E 11:39:37 10° N
H-2A R/B 2.5 11:34:47 21° N 11:37:12 73° WNW 11:40:57 10° SSW
Cosmos 1241 Rocket 4.3 11:34:24 26° NNW 11:38:02 81° WSW 11:44:14 10° SSE
Cosmos 2263 4.1 11:32:34 10° SSW 11:38:09 62° WNW 11:43:50 10° NNE
YAOGAN 6 4.0 11:40:32 25° SSW 11:40:32 25° SSW 11:42:11 10° SSW
Okean 3 Rocket 3.7 11:35:01 10° S 11:39:30 79° E 11:44:03 10° N
SAR-Lupe-3 4.4 11:37:42 10° N 11:41:19 86° W 11:44:54 10° SSW
Meteor 1-26 Rocket 4.2 11:38:32 13° NNW 11:43:40 60° W 11:49:14 10° S
Cosmos 2208 Rocket 4.2 11:43:24 32° NW 11:45:33 49° WSW 11:50:40 10° S
Cosmos 1867 3.7 11:43:54 34° WNW 11:45:56 51° WSW 11:51:09 10° S
Cosmos 1503 Rocket 3.9 11:41:18 10° SSW 11:46:32 79° WNW 11:51:51 10° NNE
Gbstr 26 Del rocket 3.0 11:46:53 44° W 11:47:45 54° SW 11:52:05 10° SSE
Cosmos 1151 Rocket 3.1 11:43:31 10° N 11:47:54 76° E 11:52:16 10° S
Cosmos 1766 Rocket 3.4 11:44:03 10° SSW 11:48:22 70° W 11:52:41 10° N
Cosmos 2369 Rocket 2.7 11:47:55 31° W 11:49:07 34° WNW 11:54:10 10° N
BREEZE-M DEB (TANK) 4.2 11:37:03 16° NW 11:51:18 75° NE 11:56:14 10° ESE
SJ-12 4.1 11:48:07 10° N 11:52:05 46° WNW 11:56:02 10° SSW
